Regional Weather Roundup
Issued by NWS Cleveland, OH

Home | Current Version | Previous Version | Graphics & Text | Print | Product List | Glossary On
Versions: 1 2 3 4 5 6 7 8 9 10 11 12 13 14 15 16 17 18 19 20 21 22 23 24 25 26 27 28 29 30 31 32 33 34 35 36 37 38 39 40 41 42 43 44 45 46 47 48 49 50
000
ASUS41 KCLE 120810
RWRCLE
OHIO REGIONAL WEATHER ROUNDUP
NATIONAL WEATHER SERVICE CLEVELAND, OH
300 AM EST TUE DEC 12 2017

NOTE: "FAIR" INDICATES FEW OR NO CLOUDS BELOW 12,000 FEET WITH NO
SIGNIFICANT WEATHER AND/OR OBSTRUCTIONS TO VISIBILITY.

OHZ001>008-015>018-024>027-034-035-043-044-120900-
   NORTHWEST OHIO

CITY           SKY/WX    TMP DP  RH WIND       PRES   REMARKS
DEFIANCE       CLOUDY    32  26  78 NW20G29   29.74R WCI  20
FINDLAY        CLOUDY    32  28  85 W13       29.68R FOG     WCI  22
TOLEDO EXPRESS CLOUDY    32  29  88 NW16G30   29.70R WCI  21
TOLEDO EXEC    CLOUDY    32  28  85 NW15      29.69R FOG     WCI  22
LIMA           CLOUDY    31  30  96 NW16      29.71R FOG     WCI  20
$$

OHZ009>014-019>023-028>033-038-089-120900-
   NORTHEAST OHIO

CITY           SKY/WX    TMP DP  RH WIND       PRES   REMARKS
CLE-HOPKINS    LGT SNOW  33  31  92 W7        29.63S FOG     WCI  27
CLE-LAKEFRONT  LGT SNOW  32  30  92 SW3       29.60S FOG
CUY CO. ARPT   NOT AVBL
LORAIN-ELYRIA  LGT SNOW  31  26  82 NW5       29.62S WCI  26
ASHTABULA      LGT SNOW  29  28  96 CALM      29.58S VSB 1
AKRON-CANTON   LGT SNOW  32  26  78 W8        29.57R FOG     WCI  25
WOOSTER        LGT SNOW  31  26  82 W7        29.60R WCI  24
MANSFIELD      LGT SNOW  30  28  92 W10       29.63R FOG     WCI  21
YOUNGSTOWN     LGT SNOW  32  26  78 NW5       29.55S WCI  27
$$

OHZ042-051>053-060>062-070>072-077>081-120900-
  SOUTHWEST OHIO

CITY           SKY/WX    TMP DP  RH WIND       PRES   REMARKS
CINC-COVINGTON CLOUDY    37  30  75 NW16      29.80R
CINC-LUNKEN    CLOUDY    39  30  70 NW12G21   29.82R
HAMILTON       CLOUDY    37  30  75 NW17G23   29.81R
DAYTON         CLOUDY    33  31  92 NW15G28   29.76R WCI  23
WRIGHT-PAT AFB CLOUDY    35  31  85 NW10      29.75R WCI  27
DAYTON GENERAL CLOUDY    35  29  78 NW15G23   29.76R WCI  25
WILMINGTON     CLOUDY    36  30  79 NW20G28   29.74R
$$

OHZ036-037-039>041-045>050-054>059-063>069-073>076-082>088-120900-
  CENTRAL AND SOUTHEAST OHIO

CITY           SKY/WX    TMP DP  RH WIND       PRES   REMARKS
COLUMBUS       CLOUDY    39  29  67 NW17G24   29.68R
OSU AIRPORT    CLOUDY    35  29  78 NW18G25   29.69R WCI  24
BOLTON FIELD   CLOUDY    36  29  76 NW17G28   29.70R
RICKENBACK AFB CLOUDY    37  28  70 W15G22    29.69R
NEWARK         CLOUDY    39  28  64 W18       29.65R
MARION         LGT SNOW  31  27  85 NW13      29.67  FOG     WCI  21
LANCASTER      CLOUDY    38  27  64 W13       29.68R
ZANESVILLE     MOCLDY    39  27  62 W14G25    29.64R
NEW PHILLY     NOT AVBL
$$




USA.gov is the U.S. government's official web portal to all federal, state and local government web resources and services.